Time,TemperatureF,DewpointF,PressureIn,WindDirection,WindDirectionDegrees,WindSpeedMPH,WindSpeedGustMPH,Humidity,HourlyPrecipIn,Conditions,Clouds,dailyrainin,SolarRadiationWatts/m^2,SoftwareType,DateUTC
2013-01-11 00:03:00,63.0,62.0,-100.00,SSW,199,13.0,29.0,97,1.06,,,1.56,0.000000,,2013-01-11 06:03:00,
2013-01-11 00:33:00,60.0,58.0,-100.00,SW,227,6.0,30.0,93,0.33,,,1.89,0.000000,,2013-01-11 06:33:00,
2013-01-11 00:42:00,60.0,58.0,-100.00,SW,227,6.0,30.0,93,0.33,,,1.89,0.000000,,2013-01-11 06:42:00,
2013-01-11 00:52:00,60.0,58.0,-100.00,SW,227,6.0,30.0,93,0.33,,,1.89,0.000000,,2013-01-11 06:52:00,
2013-01-11 01:02:00,60.0,58.0,-100.00,SW,227,6.0,30.0,93,0.33,,,1.89,0.000000,,2013-01-11 07:02:00,
2013-01-11 01:32:00,60.0,59.0,-100.00,SSW,207,5.0,13.0,95,0.01,,,-99.99,0.000000,,2013-01-11 07:32:00,
2013-01-11 01:42:00,60.0,59.0,-100.00,SSW,207,5.0,13.0,95,0.01,,,-99.99,0.000000,,2013-01-11 07:42:00,
2013-01-11 01:52:00,60.0,59.0,-100.00,SSW,207,5.0,13.0,95,0.01,,,-99.99,0.000000,,2013-01-11 07:52:00,
2013-01-11 02:02:00,60.0,59.0,-100.00,SSW,207,5.0,13.0,95,0.01,,,-99.99,0.000000,,2013-01-11 08:02:00,
2013-01-11 02:32:00,58.0,57.0,-100.00,SSW,204,4.0,9.0,95,0.00,,,1.90,0.000000,,2013-01-11 08:32:00,
2013-01-11 02:42:00,58.0,57.0,-100.00,SSW,204,4.0,9.0,95,0.00,,,1.90,0.000000,,2013-01-11 08:42:00,
2013-01-11 02:53:00,58.0,57.0,-100.00,SSW,204,4.0,9.0,95,0.00,,,1.90,0.000000,,2013-01-11 08:53:00,
2013-01-11 03:02:00,58.0,57.0,-100.00,SSW,204,4.0,9.0,95,0.00,,,1.90,0.000000,,2013-01-11 09:02:00,
2013-01-11 03:32:00,58.0,57.0,-100.00,SSW,211,5.0,10.0,95,0.02,,,1.92,0.000000,,2013-01-11 09:32:00,
2013-01-11 03:42:00,58.0,57.0,-100.00,SSW,211,5.0,10.0,95,0.02,,,1.92,0.000000,,2013-01-11 09:42:00,
2013-01-11 03:52:00,58.0,57.0,-100.00,SSW,211,5.0,10.0,95,0.02,,,1.92,0.000000,,2013-01-11 09:52:00,
2013-01-11 04:02:00,58.0,57.0,-100.00,SSW,211,5.0,10.0,95,0.02,,,1.92,0.000000,,2013-01-11 10:02:00,
2013-01-11 04:32:00,58.0,56.0,-100.00,SW,230,7.0,13.0,94,0.00,,,1.92,0.000000,,2013-01-11 10:32:00,
2013-01-11 04:43:00,58.0,56.0,-100.00,SW,230,7.0,13.0,94,0.00,,,1.92,0.000000,,2013-01-11 10:43:00,
2013-01-11 04:52:00,58.0,56.0,-100.00,SW,230,7.0,13.0,94,0.00,,,1.92,0.000000,,2013-01-11 10:52:00,
2013-01-11 05:03:00,58.0,56.0,-100.00,SW,230,7.0,13.0,94,0.00,,,1.92,0.000000,,2013-01-11 11:03:00,
2013-01-11 05:33:00,57.0,55.0,-100.00,SSW,210,6.0,19.0,93,0.00,,,1.90,0.000000,,2013-01-11 11:33:00,
2013-01-11 05:43:00,57.0,55.0,-100.00,SSW,210,6.0,19.0,93,0.00,,,1.90,0.000000,,2013-01-11 11:43:00,
2013-01-11 05:53:00,57.0,55.0,-100.00,SSW,210,6.0,19.0,93,0.00,,,1.90,0.000000,,2013-01-11 11:53:00,
2013-01-11 06:03:00,57.0,55.0,-100.00,SSW,210,6.0,19.0,93,0.00,,,1.90,0.000000,,2013-01-11 12:03:00,
2013-01-11 06:33:00,56.0,54.0,-100.00,SSW,211,6.0,14.0,93,0.00,,,-99.99,0.000000,,2013-01-11 12:33:00,
2013-01-11 06:43:00,56.0,54.0,-100.00,SSW,211,6.0,14.0,93,0.00,,,-99.99,0.000000,,2013-01-11 12:43:00,
2013-01-11 06:53:00,56.0,54.0,-100.00,SSW,211,6.0,14.0,93,0.00,,,-99.99,0.000000,,2013-01-11 12:53:00,
2013-01-11 07:03:00,56.0,54.0,-100.00,SSW,211,6.0,14.0,93,0.00,,,-99.99,0.000000,,2013-01-11 13:03:00,
2013-01-11 07:33:00,55.0,53.0,-100.00,SW,233,7.0,15.0,92,0.00,,,-99.99,0.000000,,2013-01-11 13:33:00,
2013-01-11 07:43:00,55.0,53.0,-100.00,SW,233,7.0,15.0,92,0.00,,,-99.99,0.000000,,2013-01-11 13:43:00,
2013-01-11 07:53:00,55.0,53.0,-100.00,SW,233,7.0,15.0,92,0.00,,,-99.99,0.000000,,2013-01-11 13:53:00,
2013-01-11 08:03:00,55.0,53.0,-100.00,SW,233,7.0,15.0,92,0.00,,,-99.99,0.000000,,2013-01-11 14:03:00,
2013-01-11 08:33:00,55.0,52.0,-100.00,SW,233,7.0,15.0,90,0.00,,,1.83,19.000000,,2013-01-11 14:33:00,
2013-01-11 08:43:00,55.0,52.0,-100.00,SW,233,7.0,15.0,90,0.00,,,1.83,19.000000,,2013-01-11 14:43:00,
2013-01-11 08:53:00,55.0,52.0,-100.00,SW,233,7.0,15.0,90,0.00,,,1.83,19.000000,,2013-01-11 14:53:00,
2013-01-11 09:03:00,55.0,52.0,-100.00,SW,233,7.0,15.0,90,0.00,,,1.83,19.000000,,2013-01-11 15:03:00,
2013-01-11 09:33:00,55.0,51.0,-100.00,SW,226,6.0,19.0,87,0.00,,,1.75,129.000000,,2013-01-11 15:33:00,
2013-01-11 09:43:00,55.0,51.0,-100.00,SW,226,6.0,19.0,87,0.00,,,1.75,129.000000,,2013-01-11 15:43:00,
2013-01-11 09:53:00,55.0,51.0,-100.00,SW,226,6.0,19.0,87,0.00,,,1.75,129.000000,,2013-01-11 15:53:00,
2013-01-11 10:03:00,55.0,51.0,-100.00,SW,226,6.0,19.0,87,0.00,,,1.75,129.000000,,2013-01-11 16:03:00,
2013-01-11 10:33:00,57.0,51.0,-100.00,SSW,212,6.0,15.0,81,0.00,,,1.55,187.000000,,2013-01-11 16:33:00,
2013-01-11 10:43:00,57.0,51.0,-100.00,SSW,212,6.0,15.0,81,0.00,,,1.55,187.000000,,2013-01-11 16:43:00,
2013-01-11 10:53:00,57.0,51.0,-100.00,SSW,212,6.0,15.0,81,0.00,,,1.55,187.000000,,2013-01-11 16:53:00,
2013-01-11 11:03:00,57.0,51.0,-100.00,SSW,212,6.0,15.0,81,0.00,,,1.55,187.000000,,2013-01-11 17:03:00,
2013-01-11 11:33:00,58.0,50.0,-100.00,SSW,203,6.0,16.0,76,0.00,,,1.46,312.000000,,2013-01-11 17:33:00,
2013-01-11 11:43:00,58.0,50.0,-100.00,SSW,203,6.0,16.0,76,0.00,,,1.46,312.000000,,2013-01-11 17:43:00,
2013-01-11 11:53:00,58.0,50.0,-100.00,SSW,203,6.0,16.0,76,0.00,,,1.46,312.000000,,2013-01-11 17:53:00,
2013-01-11 12:03:00,58.0,50.0,-100.00,SSW,203,6.0,16.0,76,0.00,,,1.46,312.000000,,2013-01-11 18:03:00,
2013-01-11 12:33:00,59.0,51.0,-100.00,SW,218,5.0,14.0,74,0.00,,,1.46,438.000000,,2013-01-11 18:33:00,
2013-01-11 12:43:00,59.0,51.0,-100.00,SW,218,5.0,14.0,74,0.00,,,1.46,438.000000,,2013-01-11 18:43:00,
2013-01-11 12:53:00,59.0,51.0,-100.00,SW,218,5.0,14.0,74,0.00,,,1.46,438.000000,,2013-01-11 18:53:00,
2013-01-11 13:02:00,59.0,51.0,-100.00,SW,218,5.0,14.0,74,0.00,,,1.46,438.000000,,2013-01-11 19:02:00,
2013-01-11 13:33:00,60.0,50.0,-100.00,SSW,198,7.0,15.0,69,0.00,,,1.46,448.000000,,2013-01-11 19:33:00,
2013-01-11 13:43:00,60.0,50.0,-100.00,SSW,198,7.0,15.0,69,0.00,,,1.46,448.000000,,2013-01-11 19:43:00,
2013-01-11 13:53:00,60.0,50.0,-100.00,SSW,198,7.0,15.0,69,0.00,,,1.46,448.000000,,2013-01-11 19:53:00,
2013-01-11 14:03:00,60.0,50.0,-100.00,SSW,198,7.0,15.0,69,0.00,,,1.46,448.000000,,2013-01-11 20:03:00,
2013-01-11 14:33:00,60.0,51.0,-100.00,SSW,205,6.0,15.0,71,0.00,,,1.45,321.000000,,2013-01-11 20:33:00,
2013-01-11 14:43:00,60.0,51.0,-100.00,SSW,205,6.0,15.0,71,0.00,,,1.45,321.000000,,2013-01-11 20:43:00,
2013-01-11 14:53:00,60.0,51.0,-100.00,SSW,205,6.0,15.0,71,0.00,,,1.45,321.000000,,2013-01-11 20:53:00,
2013-01-11 15:03:00,60.0,51.0,-100.00,SSW,205,6.0,15.0,71,0.00,,,1.45,321.000000,,2013-01-11 21:03:00,
2013-01-11 15:33:00,61.0,49.0,-100.00,South,191,6.0,15.0,65,0.00,,,1.44,254.000000,,2013-01-11 21:33:00,
2013-01-11 15:43:00,61.0,49.0,-100.00,South,191,6.0,15.0,65,0.00,,,1.44,254.000000,,2013-01-11 21:43:00,
2013-01-11 15:53:00,61.0,49.0,-100.00,South,191,6.0,15.0,65,0.00,,,1.44,254.000000,,2013-01-11 21:53:00,
2013-01-11 16:02:00,61.0,49.0,-100.00,South,191,6.0,15.0,65,0.00,,,1.44,254.000000,,2013-01-11 22:02:00,
2013-01-11 16:33:00,61.0,49.0,-100.00,South,187,7.0,14.0,64,0.00,,,1.44,198.000000,,2013-01-11 22:33:00,
2013-01-11 16:42:00,61.0,49.0,-100.00,South,187,7.0,14.0,64,0.00,,,1.44,198.000000,,2013-01-11 22:42:00,
2013-01-11 16:53:00,61.0,49.0,-100.00,South,187,7.0,14.0,64,0.00,,,1.44,198.000000,,2013-01-11 22:53:00,
2013-01-11 17:02:00,61.0,49.0,-100.00,South,187,7.0,14.0,64,0.00,,,1.44,198.000000,,2013-01-11 23:02:00,
2013-01-11 17:33:00,58.0,49.0,-100.00,South,187,6.0,11.0,71,0.00,,,1.44,33.000000,,2013-01-11 23:33:00,
2013-01-11 17:43:00,58.0,49.0,-100.00,South,187,6.0,11.0,71,0.00,,,1.44,33.000000,,2013-01-11 23:43:00,
2013-01-11 17:53:00,58.0,49.0,-100.00,South,187,6.0,11.0,71,0.00,,,1.44,33.000000,,2013-01-11 23:53:00,
2013-01-11 18:02:00,58.0,49.0,-100.00,South,187,6.0,11.0,71,0.00,,,1.44,33.000000,,2013-01-12 00:02:00,
2013-01-11 18:33:00,57.0,49.0,-100.00,South,188,4.0,11.0,75,0.00,,,1.44,0.000000,,2013-01-12 00:33:00,
2013-01-11 18:43:00,57.0,49.0,-100.00,South,188,4.0,11.0,75,0.00,,,1.44,0.000000,,2013-01-12 00:43:00,
2013-01-11 18:53:00,57.0,49.0,-100.00,South,188,4.0,11.0,75,0.00,,,1.44,0.000000,,2013-01-12 00:53:00,
2013-01-11 19:02:00,57.0,49.0,-100.00,South,188,4.0,11.0,75,0.00,,,1.44,0.000000,,2013-01-12 01:02:00,
2013-01-11 19:33:00,55.0,49.0,-100.00,South,179,4.0,10.0,79,0.00,,,1.44,0.000000,,2013-01-12 01:33:00,
2013-01-11 19:43:00,55.0,49.0,-100.00,South,179,4.0,10.0,79,0.00,,,1.44,0.000000,,2013-01-12 01:43:00,
2013-01-11 19:52:00,55.0,49.0,-100.00,South,179,4.0,10.0,79,0.00,,,1.44,0.000000,,2013-01-12 01:52:00,
2013-01-11 20:02:00,55.0,49.0,-100.00,South,179,4.0,10.0,79,0.00,,,1.44,0.000000,,2013-01-12 02:02:00,
2013-01-11 20:33:00,55.0,49.0,-100.00,SSW,198,3.0,10.0,79,0.00,,,1.44,0.000000,,2013-01-12 02:33:00,
2013-01-11 20:43:00,55.0,49.0,-100.00,SSW,198,3.0,10.0,79,0.00,,,1.44,0.000000,,2013-01-12 02:43:00,
2013-01-11 20:53:00,55.0,49.0,-100.00,SSW,198,3.0,10.0,79,0.00,,,1.44,0.000000,,2013-01-12 02:53:00,
2013-01-11 21:02:00,55.0,49.0,-100.00,SSW,198,3.0,10.0,79,0.00,,,1.44,0.000000,,2013-01-12 03:02:00,
2013-01-11 21:33:00,55.0,49.0,-100.00,South,186,4.0,9.0,79,0.00,,,1.44,0.000000,,2013-01-12 03:33:00,
2013-01-11 21:43:00,55.0,49.0,-100.00,South,186,4.0,9.0,79,0.00,,,1.44,0.000000,,2013-01-12 03:43:00,
2013-01-11 21:53:00,55.0,49.0,-100.00,South,186,4.0,9.0,79,0.00,,,1.44,0.000000,,2013-01-12 03:53:00,
2013-01-11 22:02:00,55.0,49.0,-100.00,South,186,4.0,9.0,79,0.00,,,1.44,0.000000,,2013-01-12 04:02:00,
2013-01-11 22:33:00,55.0,48.0,-100.00,SSW,192,3.0,9.0,78,0.00,,,1.42,0.000000,,2013-01-12 04:33:00,
2013-01-11 22:43:00,55.0,48.0,-100.00,SSW,192,3.0,9.0,78,0.00,,,1.42,0.000000,,2013-01-12 04:43:00,
2013-01-11 22:52:00,55.0,48.0,-100.00,SSW,192,3.0,9.0,78,0.00,,,1.42,0.000000,,2013-01-12 04:52:00,
2013-01-11 23:03:00,55.0,48.0,-100.00,SSW,192,3.0,9.0,78,0.00,,,1.42,0.000000,,2013-01-12 05:03:00,
2013-01-11 23:32:00,55.0,48.0,-100.00,South,180,5.0,10.0,77,0.00,,,0.36,0.000000,,2013-01-12 05:32:00,
2013-01-11 23:42:00,55.0,48.0,-100.00,South,180,5.0,10.0,77,0.00,,,0.36,0.000000,,2013-01-12 05:42:00,
2013-01-11 23:52:00,55.0,48.0,-100.00,South,180,5.0,10.0,77,0.00,,,0.36,0.000000,,2013-01-12 05:52:00,